Location: ??????????
(54.8537°N, 38.8755°E)
Time: 12:23:39
(UTC+00:00)

Altair - All Passes

Search period start: 07 September 2024 00:00
Search period end: 17 September 2024 00:00
Orbit: 1501 x 1682 km, 47.2° (Epoch: 06 September)

Date Brightness Start Highest point End Pass type
(mag) Time Alt. Az. Time Alt. Az. Time Alt. Az.
07 Sep - 01:05:39 10° S 01:13:02 24° SE 01:20:26 10° E visible
07 Sep - 03:06:34 10° SW 03:16:02 47° SSE 03:25:27 10° E daylight
07 Sep - 05:10:03 10° WSW 05:19:53 57° S 05:29:32 10° ESE daylight
07 Sep - 07:14:22 10° W 07:23:37 43° SSW 07:32:38 10° SE daylight
07 Sep - 09:19:55 10° W 09:26:18 19° SW 09:32:34 10° S daylight
08 Sep - 00:40:54 10° S 00:47:58 22° SE 00:55:03 10° E visible
08 Sep - 02:41:29 10° SW 02:50:52 45° SSE 03:00:14 10° E daylight
08 Sep - 04:44:51 10° WSW 04:54:41 57° S 05:04:22 10° ESE daylight
08 Sep - 06:49:07 10° W 06:58:28 44° SSW 07:07:36 10° SE daylight
08 Sep - 08:54:29 10° W 09:01:15 21° SW 09:07:56 10° S daylight
09 Sep - 00:16:12 10° S 00:22:54 20° SE 00:29:38 10° E visible
09 Sep - 02:16:25 10° SW 02:25:43 44° SSE 02:35:01 10° E daylight
09 Sep - 04:19:40 10° WSW 04:29:30 57° S 04:39:12 10° ESE daylight
09 Sep - 06:23:53 10° W 06:33:19 46° SSW 06:42:33 10° SE daylight
09 Sep - 08:29:04 10° W 08:36:12 23° SW 08:43:13 10° S daylight
09 Sep - 23:51:33 10° S 23:57:51 19° SE 00:04:11 10° E visible
10 Sep - 01:51:21 10° SW 02:00:33 42° SSE 02:09:47 10° E visible
10 Sep - 03:54:28 10° WSW 04:04:18 57° S 04:14:02 10° ESE daylight
10 Sep - 05:58:39 10° W 06:08:10 47° SSW 06:17:29 10° SE daylight
10 Sep - 08:03:42 10° W 08:11:09 24° SW 08:18:28 10° S daylight
10 Sep - 23:26:58 10° SSE 23:32:49 17° SE 23:38:41 10° E visible
11 Sep - 01:26:19 10° SW 01:35:25 40° SSE 01:44:33 10° E visible
11 Sep - 03:29:18 10° WSW 03:39:06 56° S 03:48:51 10° E daylight
11 Sep - 05:33:26 10° W 05:43:00 49° SSW 05:52:24 10° SE daylight
11 Sep - 07:38:20 10° W 07:46:05 26° SW 07:53:41 10° S daylight
11 Sep - 23:02:28 10° SSE 23:07:46 16° SE 23:13:07 10° E visible
12 Sep - 01:01:18 10° SSW 01:10:17 39° SSE 01:19:19 10° E visible
12 Sep - 03:04:07 10° WSW 03:13:55 56° S 03:23:39 10° E daylight
12 Sep - 05:08:11 10° W 05:17:50 50° SSW 05:27:18 10° SE daylight
12 Sep - 07:13:01 10° W 07:21:00 28° SW 07:28:51 10° SSE daylight
12 Sep - 22:38:06 10° SSE 22:42:46 14° SE 22:47:27 10° E visible
13 Sep - 00:36:18 10° SSW 00:45:09 37° SSE 00:54:04 10° E visible
13 Sep - 02:38:57 10° WSW 02:48:43 55° S 02:58:28 10° E daylight
13 Sep - 04:42:58 10° W 04:52:39 51° SSW 05:02:12 10° SE daylight
13 Sep - 06:47:41 10° W 06:55:55 30° SW 07:03:59 10° SSE daylight
13 Sep - 22:13:53 10° SSE 22:17:45 13° SE 22:21:37 10° E visible
14 Sep - 00:11:20 10° SSW 00:20:02 35° SE 00:28:49 10° E visible
14 Sep - 02:13:48 10° WSW 02:23:32 55° S 02:33:16 10° E visible
14 Sep - 04:17:45 10° W 04:27:28 53° SSW 04:37:04 10° ESE daylight
14 Sep - 06:22:23 10° W 06:30:49 31° SW 06:39:06 10° SSE daylight
14 Sep - 21:49:59 10° SE 21:52:44 11° ESE 21:55:30 10° ESE visible
14 Sep - 23:46:23 10° SSW 23:54:55 33° SE 00:03:33 10° E visible
15 Sep - 01:48:39 10° WSW 01:58:21 54° SSE 02:08:05 10° E visible
15 Sep - 03:52:33 10° W 04:02:17 54° SSW 04:11:57 10° ESE daylight
15 Sep - 05:57:06 10° W 06:05:42 33° SW 06:14:11 10° SSE daylight
15 Sep - 08:05:17 10° WSW 08:07:51 11° WSW 08:10:24 10° SW daylight
15 Sep - 23:21:27 10° SSW 23:29:48 32° SE 23:38:16 10° E visible
16 Sep - 01:23:32 10° WSW 01:33:10 53° SSE 01:42:52 10° E visible
16 Sep - 03:27:20 10° W 03:37:06 55° S 03:46:48 10° ESE daylight
16 Sep - 05:31:50 10° W 05:40:35 35° SW 05:49:14 10° SSE daylight
16 Sep - 07:39:07 10° WSW 07:42:51 13° SW 07:46:34 10° SSW daylight
16 Sep - 22:56:34 10° SSW 23:04:42 30° SE 23:12:57 10° E visible
